Location: �perlecques
(50.8057°N, 2.1521°E)
Time: 11:34:53
(UTC+00:00)

VELOX 1 - Pass Details

Date: 28 September 2021
Orbit: 626 x 643 km, 98.3° (Epoch: 16 October)

Event Time Altitude Azimuth Distance (km) Brightness Sun altitude
Exits shadow 03:50:05 43° 247° (WSW) 893 ? -19.0°
Maximum altitude 03:50:25 44° 261° (W) 881 ? -18.9°
Drops below altitude 10° 03:54:37 10° 334° (NNW) 2,017 ? -18.3°
Sets 03:56:55 0° 341° (NNW) 2,928 ? -17.9°
